Flag for Congo Dem.Rep. Weather past 2 weeks in Bukavu, Congo Dem.Rep.

Now
75 °F

Passing clouds.


Feels Like: 78 °F
Forecast: 54 / 70 °F
Wind: 3 mph from South

Location: Kigali Airport

Current Time: Jul 24, 2014 at 9:20:46 PM

Latest Report: Jul 24, 2014 at 9:00 PM


Visibility: N/A

Pressure: 30.18 "Hg

Humidity: 44%

Dew point: 52 °F

Location of BukavuLocation

Historic Weather in Bukavu — Graph

°F

Bukavu temperature yesterday

Maximum temperature yesterday: 82 °F (at 3:00 PM)
Minimum temperature yesterday: 63 °F (at 4:30 AM)
Average temperature yesterday: 71 °F

Past Weeks' High & Low Weather Summary

 TemperatureHumidityPressure
High86 °F (Jul 14, 2:00 PM)100% (Jul 19, 4:00 AM)30.30 "Hg (Jul 19, 4:00 AM)
Low55 °F (Jul 19, 4:00 AM)31% (Jul 14, 4:00 PM)30.07 "Hg (Jul 14, 3:00 PM)
Average72 °F57%30.18 "Hg
* Reported Jul 9 8:00 PM — Jul 24 8:00 PM, Bukavu, Weather by CustomWeather, © 2014

Note: Actual official high and low records may vary slightly from our data, if they occured in-between our weather recording intervals... More about our weather records

Advertising

Bukavu weather history for previous 24 hours

 ConditionsComfort  
Time TempWeatherWind HumidityBarometerVisibility
8:00 PM
Jul 24
75 °FPassing clouds.No wind47%30.15 "HgN/A
7:30 PM75 °FPassing clouds.7 mph47%30.12 "Hg5 mi
7:00 PM75 °FPassing clouds.6 mph47%30.12 "Hg5 mi
5:00 PM81 °FScattered clouds.7 mph37%30.09 "HgN/A
3:00 PM82 °FScattered clouds.5 mph37%30.09 "HgN/A
2:00 PM82 °FScattered clouds.5 mph35%30.12 "HgN/A
1:00 PM79 °FScattered clouds.7 mph39%30.15 "HgN/A
12:30 PM79 °FScattered clouds.9 mph39%30.21 "HgN/A
12:00 PM79 °FScattered clouds.9 mph39%30.21 "HgN/A
11:00 AM77 °FScattered clouds.9 mph42%30.21 "HgN/A
10:30 AM75 °FScattered clouds.3 mph47%30.21 "HgN/A
8:30 AM66 °FScattered clouds.5 mph68%30.21 "Hg5 mi
8:00 AM66 °FScattered clouds.3 mph68%30.21 "HgN/A
7:30 AM63 °FScattered clouds.3 mph77%30.18 "HgN/A
7:00 AM61 °FScattered clouds.6 mph77%30.18 "HgN/A
6:30 AM61 °FScattered clouds.5 mph77%30.15 "HgN/A
4:30 AM63 °FPassing clouds.6 mph73%30.15 "HgN/A
4:00 AM64 °FPassing clouds.3 mph68%30.12 "HgN/A
3:30 AM64 °FPassing clouds.3 mph73%30.12 "HgN/A
3:00 AM66 °FPassing clouds.3 mph64%30.15 "HgN/A
2:30 AM64 °FPassing clouds.3 mph68%30.15 "HgN/A
2:00 AM64 °FPassing clouds.3 mph68%30.15 "HgN/A
1:30 AM64 °FPassing clouds.5 mph68%30.15 "HgN/A
1:00 AM66 °FPassing clouds.5 mph64%30.15 "HgN/A
12:30 AM66 °FPassing clouds.3 mph60%30.15 "HgN/A
12:00 AM66 °FPassing clouds.3 mph60%30.15 "HgN/A
11:30 PM
Jul 23
66 °FPassing clouds.3 mph60%30.18 "HgN/A
11:00 PM68 °FPassing clouds.5 mph56%30.18 "HgN/A
10:30 PM68 °FPassing clouds.5 mph60%30.15 "HgN/A
10:00 PM70 °FPassing clouds.No wind57%30.18 "HgN/A
9:30 PM72 °FPassing clouds.3 mph53%30.15 "HgN/A
9:00 PM72 °FPassing clouds.3 mph50%30.15 "HgN/A
Weather by CustomWeather, © 2014

See weather overviewHow to use our weather pages